Regional Weather Roundup
Issued by NWS

Home | Current Version | Previous Version | Graphics & Text | Print | Product List | Glossary On
Versions: 1 2 3 4 5 6 7 8 9 10 11 12 13 14 15 16 17 18 19 20 21 22 23 24 25 26 27 28 29 30 31 32 33 34 35 36 37 38 39 40 41 42 43 44 45 46 47 48 49 50
000
ASUS43 KMPX 180610
RWRMN
WEATHER ROUNDUP FOR MINNESOTA
NATIONAL WEATHER SERVICE TWIN CITIES/CHANHASSEN MN
1200 AM CST WED JAN 18 2017


NOTE: "FAIR" INDICATES FEW OR NO CLOUDS BELOW 12,000 FEET WITH NO
SIGNIFICANT WEATHER AND/OR OBSTRUCTIONS TO VISIBILITY. N/A MEANS
CURRENT SKY AND/OR WEATHER CONDITIONS ARE NOT AVAILABLE.

MNZ060>063-068>070-180700-
   Twin Cities Metro

CITY           SKY/WX    TMP DP  RH WIND       PRES   REMARKS
TWIN CITIES    CLOUDY    30  27  88 S9        29.98F WCI  22
6HR MIN TEMP:  29; 6HR MAX TEMP:  33;

ST PAUL        CLOUDY    29  28  96 S7        29.99F WCI  22
CRYSTAL        CLOUDY    30  25  81 S7        29.96F WCI  23
BLAINE         CLOUDY    30  30 100 S7        29.96F FOG     WCI  23
LAKEVILLE      CLOUDY    28  28 100 S9        29.98F WCI  20
EDEN PRAIRIE   CLOUDY    30  27  88 S13       29.96F FOG     WCI  20
6HR MIN TEMP:  29; 6HR MAX TEMP:  34;

SOUTH ST PAUL  CLOUDY    30  29  95 S7        29.98F WCI  23
LAKE ELMO      CLOUDY    30  30 100 SW7       29.98F WCI  23
$$
MNZ001>005-007-008-013>017-022>024-027-028-180700-
   Northwest Minnesota

CITY           SKY/WX    TMP DP  RH WIND       PRES   REMARKS
BEMIDJI        CLOUDY    27  19  71 S12       29.73F WCI  16
HALLOCK        CLOUDY    19  16  86 S16       29.64F WCI   5
ROSEAU         CLOUDY    25  18  74 S12       29.64S WCI  14
WARROAD        CLOUDY    27  19  74 SW13G18   29.64R WCI  16
THIEF RVR FALL CLOUDY    22  17  81 SW18G26   29.70F WCI   7
CROOKSTON      CLOUDY    21  18  86 S21       29.73F WCI   6
FOSSTON        CLOUDY    21  18  86 S20G25    29.74F WCI   6
DETROIT LAKES  CLOUDY    21  18  86 S7        29.80F WCI  13
MOORHEAD       CLOUDY    19  16  86 S12       29.80F WCI   7
PARK RAPIDS    CLOUDY    19  13  77 S7        29.79F WCI  10
MAHNOMEN       FAIR      24  19  81 S18       29.75F WCI  10
$$
MNZ006-009>011-018-025>026-180700-
   North Central Minnesota

CITY           SKY/WX    TMP DP  RH WIND       PRES   REMARKS
BAUDETTE       CLOUDY    27  18  69 SW8       29.64S WCI  19
FLAG ISLAND    CLOUDY    23  18  80 SW9       29.62R WCI  13
INTL FALLS     CLOUDY    28  19  69 S7        29.68F WCI  21
6HR MIN TEMP:  24; 6HR MAX TEMP:  28;

WASKISH        CLOUDY    30  21  69 S10       29.69F WCI  21
BIG FORK       CLOUDY    27  19  74 S13       29.74F WCI  16
LONGVILLE      CLOUDY    23  18  80 S6        29.81F WCI  16
GRAND RAPIDS   CLOUDY    23  17  78 S15       29.80F WCI  10
CRANE LAKE     CLOUDY    27  18  69 S6        29.75F WCI  20
ORR            CLOUDY    25  16  68 S6        29.71F WCI  18
COOK           CLOUDY    25  18  74 S7        29.76F WCI  17
WALKER         FAIR      24  18  77 SW13G20   29.77F WCI  12
$$
MNZ012-019>021-037-180700-
   Northeast Minnesota

CITY           SKY/WX    TMP DP  RH WIND       PRES   REMARKS
DULUTH         CLOUDY    25  21  85 SW14      29.83F WCI  13
6HR MIN TEMP:  25; 6HR MAX TEMP:  31;

ELY            CLOUDY    25  16  68 SW6       29.79R WCI  18
HIBBING        CLOUDY    19  14  81 S6        29.80F WCI  11
EVELETH        CLOUDY    22  15  72 SW6       29.82F WCI  15
DULUTH HARBOR  CLOUDY    27  23  86 CALM      29.88F
TWO HARBORS    CLOUDY    25  18  74 SW3       29.82F
SILVER BAY     CLOUDY    21  19  93 SW3       29.81F
GRAND MARAIS     N/A     28  26  92 NW5       29.83F WCI  23
G MARAIS ARPRT CLEAR     21  18  86 S3        29.78F
$$
MNZ029>031-032-039>041-046>048-054>057-064-180700-
   West Central Minnesota

CITY           SKY/WX    TMP DP  RH WIND       PRES   REMARKS
FERGUS FALLS   CLOUDY    18  16  93 S12       29.89F WCI   5
WHEATON        CLOUDY    25  21  86 SE9       29.87F WCI  15
MORRIS         CLOUDY    16  14  93 SE10      29.87R WCI   3
ALEXANDRIA     CLOUDY    20  17  88 S9        29.87R WCI   9
ELBOW LAKE     FAIR      18  16  90 S12       29.86F FOG     WCI   6
WADENA         CLOUDY    18  16  93 S8        29.83F WCI   7
GLENWOOD       CLOUDY    18  16  93 SW8       29.89R WCI   7
APPLETON       CLOUDY    21  18  86 S6        29.88S WCI  14
ORTONVILLE     CLOUDY    21  18  86 SE9       29.86R WCI  11
MADISON        CLOUDY    30  25  80 S15       29.87F WCI  19
WILLMAR        FAIR      16  14  93 CALM      29.91F
$$
MNZ033>034-036-042>043-049>051-058-059-180700-
   Central Minnesota

CITY           SKY/WX    TMP DP  RH WIND       PRES   REMARKS
ST CLOUD       FOG       22  22 100 S10       29.92F VSB 3/4 WCI  11
6HR MIN TEMP:  17; 6HR MAX TEMP:  27;

SAUK CENTRE    FAIR      17  16  93 S5        29.89S WCI  10
PAYNESVILLE    CLOUDY    18  18 100 CALM      29.91S
AITKIN         CLOUDY    23  18  80 S5        29.85R WCI  17
PINE RIVER     CLOUDY    19  16  86 S7        29.87F WCI  10
BRAINERD       CLOUDY    18  16  92 S9        29.87R WCI   7
STAPLES        CLOUDY    16  12  86 S5        29.85F WCI   9
LONG PRAIRIE   FAIR      14  14 100 S5        29.89R WCI   6
LITTLE FALLS   CLOUDY    18  16  93 CALM      29.91R
LITCHFIELD     CLOUDY    23  21  93 CALM      29.93S
BUFFALO        CLOUDY    28  26  94 S7        29.96S FOG     WCI  21
MAPLE LAKE     CLOUDY    28  28  99 S7        29.94F FOG     WCI  21
HUTCHINSON     CLOUDY    23  22  97 CALM      29.96F
$$
MNZ037-044-045-052-053-180700-
   East Central Minnesota

CITY           SKY/WX    TMP DP  RH WIND       PRES   REMARKS
PRINCETON      CLOUDY    27  25  93 S8        29.92F FOG     WCI  18
MORA           CLOUDY    23  21  93 S6        29.93F WCI  16
CAMBRIDGE      CLOUDY    27  21  80 S12       29.92F HAZE    WCI  16
RUSH CITY      CLOUDY    25  23  93 S8        29.94F WCI  16
MOOSE LAKE     CLOUDY    27  25  93 SW8       29.87S WCI  18
HINCKLEY       CLOUDY    28  27  93 S8        29.92S WCI  20
CLOQUET        CLOUDY    25  21  86 SW12      29.85S FOG     WCI  14
MCGREGOR       CLOUDY    23  21  93 S6        29.87S WCI  16
$$
MNZ071>073-080-081-089-090-097-098-180700-
   Southwest Minnesota

CITY           SKY/WX    TMP DP  RH WIND       PRES   REMARKS
MONTEVIDEO     CLOUDY    21  19  93 SW8       29.91F WCI  12
GRANITE FALLS  CLOUDY    19  17  90 S9        29.93F WCI   8
CANBY            N/A     33  29  85 SW15      29.87F WCI  23
MARSHALL       CLOUDY    28  25  88 SW20      29.89F WCI  15
REDWOOD FALLS  CLOUDY    22  18  85 S7        29.94F WCI  13
OLIVIA         CLOUDY    21  19  93 S8        29.93F WCI  12
PIPESTONE      CLOUDY    27  27 100 S10       29.92F WCI  17
WINDOM         CLOUDY    27  27 100 S8        29.96F WCI  18
WORTHINGTON    CLOUDY    27  25  92 SW15      29.97S WCI  15
JACKSON        CLOUDY    27  23  86 SW8       29.98F WCI  18
TRACY          CLOUDY    30  27  91 SW23      29.92F WCI  16
SLAYTON        CLOUDY    26  25  97 SW16      29.95S WCI  13
$$
MNZ065>067-074>077-082>085-091>093-180700-
   South Central Minnesota

CITY           SKY/WX    TMP DP  RH WIND       PRES   REMARKS
MANKATO        CLOUDY    25  24  96 S9        29.99F WCI  15
NEW ULM        CLOUDY    21  21 100 S6        29.97F WCI  14
ST JAMES       CLOUDY    25  25 100 S7        29.99F WCI  17
FAIRMONT       CLOUDY    26  25  96 SW17G23   30.00F FOG     WCI  13
GLENCOE        CLOUDY    26  26 100 S8        29.96S FOG     WCI  18
FARIBAULT        N/A     28  27  93 S6        29.99F FOG     WCI  22
OWATONNA       CLOUDY    27  25  93 S8        29.99F FOG     WCI  18
WASECA         CLOUDY    28  27  93 S13       30.01F FOG     WCI  18
ALBERT LEA     CLOUDY    28  28 100 SW6       30.01S FOG     WCI  22
$$
MNZ078>079-086>088-094>096-180700-
   Southeast Minnesota

CITY           SKY/WX    TMP DP  RH WIND       PRES   REMARKS
ROCHESTER      CLOUDY    28  28 100 SW13      30.01R WCI  17
6HR MIN TEMP:  28; 6HR MAX TEMP:  32;

RED WING       CLOUDY    30  28  93 W7        30.00S WCI  23
STANTON        CLOUDY    31  28  90 SW8       29.98F WCI  23
DODGE CENTER   CLOUDY    28  28 100 SW5       30.00S FOG     WCI  23
WINONA         CLOUDY    34  32  93 CALM      30.03S
AUSTIN         CLOUDY    28  27  93 SW10      30.02S FOG     WCI  19
PRESTON        CLOUDY    30  29  97 W8        30.02S FOG     WCI  22
$$
ABBREVIATIONS USED IN REMARKS
   TC - TEMPERATURES IN CELSIUS
  WCI - WIND CHILL INDEX
   HX - HEAT INDEX
  VSB - VISIBILITY
$$




USA.gov is the U.S. government's official web portal to all federal, state and local government web resources and services.